Вернуться в каталог

STARLINK-5014

АктивенСвязьVLEO
NORAD 53926·PAYLOAD·🇺🇸 United States

Запущен Sep 24, 2022 с Cape Canaveral Space Force Station

Loading…

Ближайшие Пролёты (ближайшие 24 часа)

TLE

СвежийSource: CelesTrak SupGP

Эпоха: Sep 14, 2026, 21:30 UTC

1 53926C 22119AS  26257.89631944 -.00051369  00000+0 -16520-2 0  2574
2 53926  53.1610 144.5602 0001571  95.9957 312.9741 15.31726026    14

Отслеживайте STARLINK-5014 в реальном времени с AllMySat

Download on the App Store